TimeCDT,TemperatureF,Dew PointF,Humidity,Sea Level PressureIn,VisibilityMPH,Wind Direction,Wind SpeedMPH,Gust SpeedMPH,PrecipitationIn,Events,Conditions,WindDirDegrees,DateUTC
12:58 AM,36.9,19.9,50,30.30,10.0,NE,4.6,-,N/A,,Clear,40,2013-04-03 05:58:00
1:58 AM,35.8,20.3,53,30.29,10.0,NE,4.6,-,N/A,,Clear,50,2013-04-03 06:58:00
2:58 AM,34.7,19.6,54,30.30,10.0,ENE,3.5,-,N/A,,Clear,70,2013-04-03 07:58:00
3:58 AM,33.8,19.0,55,30.28,10.0,NE,4.6,-,N/A,,Clear,50,2013-04-03 08:58:00
4:58 AM,32.9,18.1,55,30.27,10.0,NE,4.6,-,N/A,,Clear,40,2013-04-03 09:58:00
5:58 AM,31.1,19.2,61,30.32,10.0,NNE,4.6,-,N/A,,Clear,20,2013-04-03 10:58:00
6:58 AM,30.2,20.3,67,30.35,10.0,NNE,4.6,-,N/A,,Clear,30,2013-04-03 11:58:00
7:58 AM,31.8,20.8,64,30.37,10.0,NE,6.9,-,N/A,,Clear,50,2013-04-03 12:58:00
8:58 AM,36.1,22.1,57,30.36,10.0,East,10.4,-,N/A,,Clear,80,2013-04-03 13:58:00
9:58 AM,41.2,20.7,44,30.36,10.0,ENE,8.1,-,N/A,,Clear,70,2013-04-03 14:58:00
10:58 AM,45.0,20.3,38,30.35,10.0,East,11.5,-,N/A,,Clear,80,2013-04-03 15:58:00
11:58 AM,47.1,20.1,34,30.32,10.0,NE,13.8,17.3,N/A,,Clear,50,2013-04-03 16:58:00
12:58 PM,48.7,20.5,33,30.30,10.0,NNE,8.1,18.4,N/A,,Clear,30,2013-04-03 17:58:00
1:58 PM,49.8,20.1,31,30.27,10.0,NE,8.1,-,N/A,,Clear,50,2013-04-03 18:58:00
2:58 PM,51.4,20.8,30,30.25,10.0,East,6.9,-,N/A,,Partly Cloudy,100,2013-04-03 19:58:00
3:58 PM,52.3,20.7,29,30.25,10.0,East,4.6,-,N/A,,Scattered Clouds,80,2013-04-03 20:58:00
4:58 PM,52.2,20.5,29,30.24,10.0,ENE,9.2,-,N/A,,Scattered Clouds,60,2013-04-03 21:58:00
5:58 PM,51.1,19.2,29,30.23,10.0,ENE,4.6,-,N/A,,Overcast,60,2013-04-03 22:58:00
6:58 PM,50.5,19.6,30,30.23,10.0,ENE,6.9,-,N/A,,Mostly Cloudy,60,2013-04-03 23:58:00
7:58 PM,48.6,19.4,32,30.23,10.0,ENE,5.8,-,N/A,,Scattered Clouds,60,2013-04-04 00:58:00
8:58 PM,46.4,20.1,35,30.24,10.0,ENE,6.9,-,N/A,,Overcast,60,2013-04-04 01:58:00
9:58 PM,44.2,21.6,41,30.24,10.0,ENE,8.1,-,N/A,,Clear,70,2013-04-04 02:58:00
10:55 PM,42.8,23.0,46,30.20,10.0,ENE,6.9,-,N/A,,Clear,70,2013-04-04 03:55:00
11:58 PM,40.6,23.0,49,30.22,10.0,East,4.6,-,N/A,,Clear,90,2013-04-04 04:58:00